This demonstration page uses our WeatherBlox Daily Observations layout. Learn more.

Left ArrowRight Arrow

40.92945, -100.16068

Hourly Observations for February 4, 2022

Temp ( °F °C ) Dew Point ( °F °C ) Humidity (%) Winds ( mph kmh ) Pressure ( in mb ) Visibility ( mi km ) Precip ( " mm )
12:15 am 00:15 Clear 11 -11.8 0 -17.7 62 62 SW 3 6 30.55 1035 10 16 0.00 0.00
12:35 am 00:35 Clear 8 -13.2 -1 -18.4 65 65 WNW 8 13 30.58 1035 10 16 0.00 0.00
12:55 am 00:55 Clear 7 -13.8 -1 -18.5 68 68 W 6 9 30.58 1036 10 16 0.00 0.00
1:15 am 01:15 Clear 6 -14.5 -2 -18.9 69 69 WSW 5 7 30.59 1036 10 16 0.00 0.00
1:35 am 01:35 Clear 8 -13.5 0 -17.9 70 70 WSW 5 7 30.57 1035 10 16 0.00 0.00
1:55 am 01:55 Clear 7 -13.8 -1 -18.2 70 70 WSW 6 9 30.57 1035 10 16 0.00 0.00
2:15 am 02:15 Clear 7 -14.1 -1 -18.2 71 71 W 7 11 30.58 1035 10 16 0.00 0.00
2:35 am 02:35 Clear 6 -14.5 -1 -18.3 73 73 W 8 13 30.58 1036 10 16 0.00 0.00
2:55 am 02:55 Clear 5 -14.9 -1 -18.6 74 74 WNW 6 9 30.59 1036 10 16 0.00 0.00
3:15 am 03:15 Clear 4 -15.6 -2 -19 75 75 NW 8 13 30.60 1036 10 16 0.00 0.00
3:35 am 03:35 Clear 7 -14.1 1 -17.4 76 76 WNW 9 15 30.59 1036 10 16 0.00 0.00
3:55 am 03:55 Clear 7 -14 1 -17.3 76 76 WNW 9 15 30.59 1036 10 16 0.00 0.00
4:15 am 04:15 Clear 7 -13.7 1 -17 76 76 WNW 8 13 30.57 1035 10 16 0.00 0.00
4:35 am 04:35 Clear 8 -13.5 2 -16.6 78 78 WNW 8 13 30.57 1035 10 16 0.00 0.00
4:55 am 04:55 Clear 7 -13.9 1 -17 78 78 W 7 11 30.58 1035 10 16 0.00 0.00
5:15 am 05:15 Clear 7 -14 1 -17 78 78 WNW 9 15 30.58 1035 10 16 0.00 0.00
5:35 am 05:35 Clear 10 -12.2 4 -15.7 75 75 WNW 12 19 30.57 1035 10 16 0.00 0.00
5:55 am 05:55 Clear 10 -12 4 -15.7 74 74 WNW 9 15 30.56 1035 10 16 0.00 0.00
6:15 am 06:15 Clear 10 -12.3 4 -15.8 75 75 WNW 8 13 30.56 1035 10 16 0.00 0.00
6:35 am 06:35 Mostly Cloudy 9 -12.9 3 -16 78 78 WNW 9 15 30.57 1035 10 16 0.00 0.00
6:55 am 06:55 Mostly Cloudy 10 -12.1 4 -15.7 75 75 WNW 12 19 30.58 1035 10 16 0.00 0.00
7:15 am 07:15 Partly Cloudy 10 -12.1 4 -15.6 75 75 WNW 13 20 30.58 1035 10 16 0.00 0.00
7:35 am 07:35 Mostly Cloudy 11 -11.5 5 -15.1 75 75 WNW 12 19 30.58 1036 10 16 0.00 0.00
7:55 am 07:55 Cloudy 14 -9.9 7 -14.1 72 72 WNW 12 19 30.56 1035 10 16 0.00 0.00
8:15 am 08:15 Cloudy 17 -8.6 8 -13.6 67 67 WNW 14 22 30.56 1035 10 16 0.00 0.00
8:35 am 08:35 Cloudy 18 -7.7 8 -13.5 63 63 WNW 14 22 30.55 1034 10 16 0.00 0.00
8:55 am 08:55 Mostly Cloudy 18 -7.6 8 -13.4 64 64 WNW 13 20 30.56 1035 10 16 0.00 0.00
9:15 am 09:15 Partly Cloudy 21 -6.3 9 -13 59 59 WNW 16 26 30.55 1035 10 16 0.00 0.00
9:35 am 09:35 Sunny 23 -5.1 9 -12.7 56 56 WNW 15 24 30.54 1034 10 16 0.00 0.00
9:55 am 09:55 Sunny 26 -3.6 10 -12.2 52 52 WNW 14 22 30.53 1034 10 16 0.00 0.00
10:15 am 10:15 Sunny 28 -2.4 10 -12 48 48 NW 14 22 30.52 1034 10 16 0.00 0.00
10:35 am 10:35 Sunny 29 -1.5 10 -12 45 45 NNW 12 19 30.52 1034 10 16 0.00 0.00
10:55 am 10:55 Sunny 32 -0.2 11 -11.5 43 43 NW 8 13 30.51 1033 10 16 0.00 0.00
11:15 am 11:15 Sunny 33 0.7 11 -11.6 40 40 N 10 17 30.50 1033 10 16 0.00 0.00
11:35 am 11:35 Sunny 33 0.7 11 -11.7 39 39 N 10 17 30.50 1033 10 16 0.00 0.00
11:55 am 11:55 Sunny 34 1 11 -11.7 38 38 NNW 14 22 30.51 1033 10 16 0.00 0.00
12:15 pm 12:15 Sunny 35 1.4 11 -11.7 37 37 N 8 13 30.49 1033 10 16 0.00 0.00
12:35 pm 12:35 Sunny 36 2.2 11 -11.5 36 36 N 7 11 30.49 1032 10 16 0.00 0.00
12:55 pm 12:55 Sunny 36 2.2 12 -11.3 36 36 WNW 7 11 30.48 1032 10 16 0.00 0.00
1:15 pm 13:15 Sunny 37 2.6 12 -11.3 35 35 NW 7 11 30.46 1032 10 16 0.00 0.00
1:35 pm 13:35 Sunny 38 3.2 12 -11.1 35 35 WNW 7 11 30.46 1031 10 16 0.00 0.00
1:55 pm 13:55 Sunny 38 3.4 12 -11 34 34 NNW 9 15 30.43 1031 10 16 0.00 0.00
2:15 pm 14:15 Sunny 38 3.6 12 -10.9 34 34 NW 10 17 30.43 1031 10 16 0.00 0.00
2:35 pm 14:35 Sunny 39 3.9 13 -10.7 34 34 W 7 11 30.42 1030 10 16 0.00 0.00
2:55 pm 14:55 Sunny 40 4.5 13 -10.5 33 33 WNW 8 13 30.41 1030 10 16 0.00 0.00
3:15 pm 15:15 Sunny 41 5.1 13 -10.5 32 32 WNW 10 17 30.41 1030 10 16 0.00 0.00
3:35 pm 15:35 Sunny 41 5.1 13 -10.4 32 32 NW 8 13 30.41 1030 10 16 0.00 0.00
3:55 pm 15:55 Sunny 42 5.3 13 -10.3 32 32 WNW 8 13 30.41 1030 10 16 0.00 0.00
4:15 pm 16:15 Sunny 41 5.2 13 -10.4 32 32 NW 3 6 30.41 1030 10 16 0.00 0.00
4:35 pm 16:35 Sunny 42 5.5 14 -10.2 32 32 WNW 6 9 30.39 1029 10 16 0.00 0.00
4:55 pm 16:55 Sunny 42 5.4 14 -10.2 32 32 Calm 30.39 1029 10 16 0.00 0.00
5:15 pm 17:15 Sunny 41 5.1 14 -10.2 32 32 Calm 30.39 1029 10 16 0.00 0.00
5:35 pm 17:35 Sunny 40 4.6 13 -10.4 33 33 Calm 30.39 1029 10 16 0.00 0.00
5:55 pm 17:55 Sunny 39 3.7 13 -10.4 35 35 SSE 3 6 30.40 1030 10 16 0.00 0.00
6:15 pm 18:15 Clear 36 2.2 13 -10.7 38 38 SE 5 7 30.42 1030 10 16 0.00 0.00
6:35 pm 18:35 Clear 35 1.5 13 -10.6 41 41 SE 7 11 30.42 1030 10 16 0.00 0.00
6:55 pm 18:55 Clear 33 0.7 12 -11 42 42 SE 7 11 30.43 1031 10 16 0.00 0.00
7:15 pm 19:15 Clear 31 -0.8 12 -11 46 46 SSE 7 11 30.45 1031 10 16 0.00 0.00
7:35 pm 19:35 Clear 28 -2.2 11 -11.5 49 49 SSE 8 13 30.46 1032 10 16 0.00 0.00
7:55 pm 19:55 Clear 26 -3.1 11 -11.6 52 52 ESE 5 7 30.47 1032 10 16 0.00 0.00
8:15 pm 20:15 Clear 27 -3 11 -11.5 52 52 SE 5 7 30.47 1032 10 16 0.00 0.00
8:35 pm 20:35 Clear 27 -2.9 11 -11.6 52 52 SE 7 11 30.47 1032 10 16 0.00 0.00
8:55 pm 20:55 Clear 25 -3.8 10 -12 53 53 ESE 5 7 30.48 1032 10 16 0.00 0.00
9:15 pm 21:15 Clear 24 -4.4 10 -12.2 55 55 ESE 6 9 30.48 1032 10 16 0.00 0.00
9:35 pm 21:35 Clear 24 -4.5 10 -12.2 55 55 ESE 6 9 30.47 1032 10 16 0.00 0.00
9:55 pm 21:55 Clear 23 -5.2 10 -12.5 57 57 ESE 7 11 30.48 1032 10 16 0.00 0.00
10:15 pm 22:15 Clear 22 -5.6 10 -12.2 60 60 ESE 6 9 30.48 1032 10 16 0.00 0.00
10:35 pm 22:35 Clear 21 -6.3 9 -12.7 61 61 ESE 6 9 30.48 1032 10 16 0.00 0.00
10:55 pm 22:55 Clear 20 -6.6 10 -12.5 63 63 SE 6 9 30.48 1032 10 16 0.00 0.00
11:15 pm 23:15 Clear 20 -6.8 9 -12.8 63 63 ESE 6 9 30.47 1032 10 16 0.00 0.00
11:35 pm 23:35 Clear 20 -6.7 10 -12.5 64 64 ESE 6 9 30.46 1031 10 16 0.00 0.00
11:55 pm 23:55 Clear 19 -7 9 -12.7 64 64 ESE 6 9 30.45 1031 10 16 0.00 0.00

Powered by AerisWeather